Location: State Camp
(41.2367°N, 77.7828°W)
Time: 12:01:10
(UTC-04:00)

Amateur Radio Satellites - All Passes

Search period start: 31 August 2016 11:31
Search period end: 01 September 2016 11:31
Location: State Camp, 41.2367°N, 77.7828°W

Satellite Date Start Highest point End Downlink Frequencies (MHz)
Time Altitude Azimuth
FUNcube-1 31 Aug 11:31:26 11:34:31 21° 293° (WNW) 11:37:35 145.935
PCSat 31 Aug 11:31:45 11:37:08 72° 116° (ESE) 11:42:33 145.827
Cosmos 2499 31 Aug 11:33:43 11:40:38 33° 87° (E) 11:47:09 435.465 / 435.565
AUBIESAT-1 31 Aug 11:35:55 11:36:43 11° 94° (E) 11:37:30 437.475
POPSAT HIP 1 31 Aug 11:39:29 11:43:40 54° 73° (ENE) 11:47:50 437.405
M-CUBED/EXP-1 PRIME 31 Aug 11:43:38 11:46:18 17° 97° (E) 11:48:50 437.505
UNISAT 6 31 Aug 11:47:36 11:50:50 19° 267° (W) 11:54:01 437.425
ZACube-1 31 Aug 11:56:55 11:58:06 11° 298° (WNW) 11:59:17 437.345
DUCHIFAT 1 31 Aug 12:02:09 12:06:24 87° 80° (E) 12:10:41 145.980
HUMSAT D 31 Aug 12:04:58 12:08:45 37° 288° (WNW) 12:12:32 437.325/437.525
AO-85 31 Aug 12:06:30 12:07:36 11° 34° (NE) 12:08:42 145.980
AISAT 31 Aug 12:07:22 12:10:30 18° 93° (E) 12:13:35 437.250
JAS-2 31 Aug 12:10:14 12:15:21 56° 71° (ENE) 12:20:54 435.910
QB50P2 31 Aug 12:10:56 12:15:10 61° 259° (W) 12:19:24 145.880/145.840
DANDE 31 Aug 12:11:12 12:16:39 37° 267° (W) 12:23:20 436.750
POLYITAN 1 31 Aug 12:13:26 12:17:39 60° 259° (W) 12:21:54 437.675
ESTCUBE 1 31 Aug 12:15:16 12:19:35 41° 99° (E) 12:23:51 437.505/2401.250
NANOSAT C BR1 31 Aug 12:18:09 12:22:20 57° 260° (W) 12:26:32 145.865
ISS 31 Aug 12:18:27 12:20:41 17° 14° (NNE) 12:22:55 145.825
50 SAT 31 Aug 12:19:40 12:22:30 21° 95° (E) 12:25:20 437.505
CUSAT 1 31 Aug 12:19:52 12:23:53 16° 276° (W) 12:28:11 437.405
AIST 2 31 Aug 12:33:39 12:37:35 44° 307° (NW) 12:41:34 435.215
BUGSAT 1 31 Aug 12:40:11 12:44:26 82° 257° (WSW) 12:48:42 437.445
SPROUT 31 Aug 12:43:21 12:46:40 22° 94° (E) 12:49:58 437.525
CUBEBUG 1 31 Aug 12:44:30 12:48:52 55° 100° (E) 12:53:10 437.445
Oscar 19 31 Aug 12:47:46 12:51:55 25° 65° (ENE) 12:56:05 437.125/150
VELOX 1 31 Aug 12:53:18 12:57:42 55° 101° (E) 13:02:03 145.980
Gurwin Techsat 1B 31 Aug 12:53:48 12:56:28 14° 59° (ENE) 12:59:09 435.225
DX 1 31 Aug 12:56:37 13:00:45 39° 99° (E) 13:04:50 434.975-435.025
QB50P1 31 Aug 13:06:28 13:09:13 17° 267° (W) 13:11:58 145.935-145.965
AUBIESAT-1 31 Aug 13:07:46 13:11:37 52° 292° (WNW) 13:15:11 437.475
RS-15 31 Aug 13:14:49 13:21:26 17° 265° (W) 13:28:01 29.354- 29.394
GONETS M04 31 Aug 13:15:45 13:24:08 49° 285° (WNW) 13:32:39
PCSat 31 Aug 13:17:09 13:21:05 20° 316° (NW) 13:25:02 145.827
M-CUBED/EXP-1 PRIME 31 Aug 13:17:21 13:20:59 33° 296° (WNW) 13:24:22 437.505
POPSAT HIP 1 31 Aug 13:17:46 13:19:45 13° 269° (W) 13:21:45 437.405
Cosmos 2499 31 Aug 13:25:51 13:33:30 47° 284° (WNW) 13:40:40 435.465 / 435.565
UKube-1 31 Aug 13:28:55 13:33:16 70° 102° (ESE) 13:37:34 .
O/OREOS (USA 219) 31 Aug 13:31:58 13:36:24 61° 108° (ESE) 13:40:52 437.305
AISAT 31 Aug 13:42:56 13:47:08 40° 289° (WNW) 13:51:17 437.250
AO-85 31 Aug 13:44:42 13:48:58 70° 56° (NE) 13:52:55 145.980
ESTCUBE 1 31 Aug 13:52:48 13:56:04 20° 295° (WNW) 13:59:21 437.505/2401.250
50 SAT 31 Aug 13:53:02 13:56:01 24° 291° (WNW) 13:58:59 437.505
ISS 31 Aug 13:54:26 13:57:41 57° 32° (NNE) 14:00:56 145.825
JAS-2 31 Aug 13:57:34 14:01:00 17° 271° (W) 14:04:36 435.910
ITAMSAT 1 31 Aug 14:11:26 14:15:19 22° 63° (ENE) 14:19:11 435.822/435.867
SPROUT 31 Aug 14:18:51 14:22:39 32° 290° (WNW) 14:26:25 437.525
SWISSCUBE 31 Aug 14:20:11 14:21:47 11° 90° (E) 14:23:23 437.505
TISAT 1 31 Aug 14:22:09 14:26:19 57° 101° (E) 14:30:25 437.305
CUBEBUG 1 31 Aug 14:22:13 14:24:40 15° 297° (WNW) 14:27:06 437.445
Oscar 19 31 Aug 14:26:08 14:30:59 41° 262° (W) 14:35:54 437.125/150
Gurwin Techsat 1B 31 Aug 14:30:24 14:35:42 82° 256° (WSW) 14:41:04 435.225
VELOX 1 31 Aug 14:31:09 14:33:42 15° 297° (WNW) 14:36:14 145.980
DX 1 31 Aug 14:33:29 14:36:39 20° 295° (WNW) 14:39:48 434.975-435.025
BEESAT 31 Aug 14:35:45 14:38:35 16° 92° (E) 14:41:25 436.000
AO-7 31 Aug 14:48:08 14:55:38 39° 60° (ENE) 15:03:07 29.400- 29.500
UKube-1 31 Aug 15:07:10 15:08:43 12° 299° (WNW) 15:10:15 .
O/OREOS (USA 219) 31 Aug 15:13:35 15:16:14 15° 307° (NW) 15:18:54 437.305
YUBILEINY 31 Aug 15:22:00 15:22:34 10° 53° (NE) 15:23:07 435.215
ITUPSAT 1 31 Aug 15:24:40 15:29:18 48° 100° (E) 15:33:55 437.325
ISS 31 Aug 15:31:43 15:33:51 16° 229° (SW) 15:35:58 145.825
MOZHAYETS 4 31 Aug 15:49:05 15:51:17 13° 90° (E) 15:53:28
ITAMSAT 1 31 Aug 15:49:26 15:54:25 48° 260° (W) 15:59:27 435.822/435.867
SWISSCUBE 31 Aug 15:55:18 16:00:04 73° 286° (WNW) 16:04:49 437.505
TISAT 1 31 Aug 15:59:32 16:01:27 13° 297° (WNW) 16:03:22 437.305
BEESAT 31 Aug 16:12:02 16:16:42 55° 288° (WNW) 16:21:20 436.000
BEESAT 3 31 Aug 16:38:14 16:40:22 14° 41° (NE) 16:42:30 437.485
AO-7 31 Aug 16:40:06 16:48:10 51° 259° (WSW) 16:56:14 29.400- 29.500
KKS-1 31 Aug 16:47:16 16:51:28 39° 99° (E) 16:55:38 437.445
Cosmos 2491 31 Aug 16:58:23 17:04:33 22° 79° (E) 17:10:45 435.465 / 435.565
NOAA 18 31 Aug 17:01:52 17:03:34 11° 56° (NE) 17:05:16 137.9125
ITUPSAT 1 31 Aug 17:03:26 17:06:46 19° 296° (WNW) 17:10:06 437.325
HORYU 2 31 Aug 17:07:03 17:11:24 55° 73° (ENE) 17:15:45 437.375
NOAA 15 31 Aug 17:10:06 17:13:32 18° 61° (ENE) 17:16:59 137.62
STARS 31 Aug 17:11:20 17:15:22 34° 98° (E) 17:19:20 437.465
YUBILEINY 31 Aug 17:13:08 17:21:43 55° 77° (ENE) 17:30:12 435.215
Cubesat XI-IV 31 Aug 17:13:17 17:16:14 15° 60° (ENE) 17:19:09 437.490
CUBESAT XI-V 31 Aug 17:20:12 17:23:09 16° 91° (E) 17:26:04 437.345
CUTE-I 31 Aug 17:22:58 17:26:32 19° 62° (ENE) 17:30:06 437.470
MOZHAYETS 4 31 Aug 17:24:18 17:28:49 60° 286° (WNW) 17:33:20
BRITE-PL 31 Aug 17:34:51 17:39:35 44° 70° (ENE) 17:44:41 437.365/2234.400
BEESAT 2 31 Aug 18:05:23 18:09:16 46° 53° (NE) 18:13:08 435.950
HO-68 31 Aug 18:07:01 18:09:28 12° 49° (NE) 18:11:55 435.675
DOVE 4 31 Aug 18:11:55 18:16:00 23° 65° (ENE) 18:20:08 437.250
BEESAT 3 31 Aug 18:14:32 18:18:29 71° 241° (WSW) 18:22:26 437.485
LilacSat-2 31 Aug 18:22:37 18:26:22 53° 74° (ENE) 18:30:06 437.200
KKS-1 31 Aug 18:24:31 18:27:45 20° 295° (WNW) 18:30:58 437.445
GOMX 1 31 Aug 18:26:08 18:31:15 64° 74° (ENE) 18:36:40 467.674
Cosmos 2504 31 Aug 18:32:41 18:39:49 61° 79° (E) 18:46:55 435.465 / 435.565
NOAA 18 31 Aug 18:37:46 18:43:18 77° 72° (ENE) 18:48:50 137.9125
PCSat 31 Aug 18:38:37 18:40:24 11° 36° (NE) 18:42:10 145.827
HORYU 2 31 Aug 18:45:59 18:48:16 14° 269° (W) 18:50:33 437.375
NOAA 15 31 Aug 18:47:35 18:52:47 63° 258° (WSW) 18:58:02 137.62
STARS 31 Aug 18:48:08 18:51:30 22° 294° (WNW) 18:54:50 437.465
Cubesat XI-IV 31 Aug 18:50:17 18:55:38 77° 257° (WSW) 19:00:59 437.490
Cosmos 2491 31 Aug 18:51:39 19:00:21 77° 279° (W) 19:09:11 435.465 / 435.565
CUBESAT XI-V 31 Aug 18:56:14 19:00:48 51° 287° (WNW) 19:05:22 437.345
CUTE-I 31 Aug 19:00:49 19:06:05 61° 259° (WSW) 19:11:22 437.470
AIST 1 31 Aug 19:06:36 19:06:58 10° 67° (ENE) 19:07:18
YUBILEINY 31 Aug 19:10:38 19:18:01 32° 277° (W) 19:25:22 435.215
BRITE-PL 31 Aug 19:14:23 19:18:17 23° 269° (W) 19:22:26 437.365/2234.400
AIST 2 31 Aug 19:17:26 19:19:55 15° 41° (NE) 19:22:24 435.215
CANX-2 31 Aug 19:27:13 19:30:39 25° 69° (ENE) 19:34:05 2200.000
COMPASS 1 31 Aug 19:29:48 19:31:03 11° 62° (ENE) 19:32:17 437.405
CUTE 1.7 + AOD 2 31 Aug 19:32:26 19:35:51 25° 69° (ENE) 19:39:16 437.475
BEESAT 2 31 Aug 19:44:18 19:46:43 16° 250° (WSW) 19:49:08 435.950
CUBEBUG 2 31 Aug 19:46:50 19:49:30 15° 64° (ENE) 19:52:08 437.445
DOVE 4 31 Aug 19:48:19 19:53:20 47° 262° (W) 19:58:28 437.250
HO-68 31 Aug 19:48:43 19:55:45 60° 68° (ENE) 20:02:48 435.675
CINEMA 3 31 Aug 19:56:27 20:01:25 66° 74° (ENE) 20:06:18 145.822/145.860
LilacSat-2 31 Aug 20:00:24 20:00:58 10° 270° (W) 20:01:33 437.200
GOMX 1 31 Aug 20:06:34 20:09:48 16° 271° (W) 20:13:08 467.674
PCSat 31 Aug 20:19:40 20:25:01 57° 57° (ENE) 20:30:20 145.827
NOAA 18 31 Aug 20:21:44 20:24:31 14° 270° (W) 20:27:17 137.9125
STRAND 1 31 Aug 20:26:01 20:31:06 66° 102° (ESE) 20:36:11 437.568
Cosmos 2504 31 Aug 20:27:16 20:32:31 22° 278° (W) 20:37:47 435.465 / 435.565
SEEDS 31 Aug 20:31:12 20:35:21 80° 77° (ENE) 20:39:32 437.485
Oscar 11 31 Aug 20:37:04 20:40:15 21° 67° (ENE) 20:43:26 145.826/435.025
AIST 1 31 Aug 20:40:42 20:45:07 73° 263° (W) 20:49:27
AAUSAT CUBESAT 2 31 Aug 20:49:17 20:53:22 69° 75° (ENE) 20:57:28 437.432
FUNcube-1 31 Aug 20:50:12 20:53:51 27° 69° (ENE) 20:57:28 145.935
Cosmos 2491 31 Aug 20:54:01 20:58:51 16° 301° (WNW) 21:03:44 435.465 / 435.565
AIST 2 31 Aug 20:54:42 20:58:53 71° 239° (WSW) 21:03:02 435.215
COMPASS 1 31 Aug 21:01:57 21:06:02 65° 259° (WSW) 21:10:09 437.405
CANX-2 31 Aug 21:02:51 21:06:24 27° 265° (W) 21:10:00 2200.000
CUTE 1.7 + AOD 2 31 Aug 21:08:01 21:11:35 27° 264° (W) 21:15:11 437.475
UWE-3 31 Aug 21:09:06 21:13:37 73° 76° (ENE) 21:18:03 435.000/436.395/437.385
ZACube-1 31 Aug 21:13:34 21:17:51 51° 73° (ENE) 21:22:03 437.345
CUBEBUG 2 31 Aug 21:21:08 21:25:41 56° 260° (W) 21:30:10 437.445
HUMSAT D 31 Aug 21:22:40 21:24:31 13° 64° (ENE) 21:26:22 437.325/437.525
PRISM 31 Aug 21:25:42 21:29:23 29° 97° (E) 21:33:00 437.425
GONETS M04 31 Aug 21:30:27 21:36:09 18° 61° (ENE) 21:41:49
CINEMA 3 31 Aug 21:36:19 21:38:55 14° 270° (W) 21:41:31 145.822/145.860
HO-68 31 Aug 21:38:03 21:43:51 26° 266° (W) 21:49:41 435.675
DELFI C3 31 Aug 21:49:44 21:53:32 50° 74° (ENE) 21:57:23 145.870
PCSat 31 Aug 22:04:04 22:07:57 20° 254° (WSW) 22:11:48 145.827
O/OREOS (USA 219) 31 Aug 22:04:07 22:06:34 14° 52° (NE) 22:09:00 437.305
STRAND 1 31 Aug 22:06:40 22:09:44 16° 299° (WNW) 22:12:47 437.568
Oscar 11 31 Aug 22:12:13 22:16:08 35° 263° (W) 22:20:07 145.826/435.025
AUBIESAT-1 31 Aug 22:19:32 22:22:52 20° 60° (ENE) 22:26:10 437.475
SO-50 31 Aug 22:19:53 22:23:57 27° 113° (ESE) 22:27:59 436.795
FUNcube-1 31 Aug 22:26:16 22:30:01 27° 264° (W) 22:33:44 145.935
M-CUBED/EXP-1 PRIME 31 Aug 22:28:26 22:32:29 29° 63° (ENE) 22:36:29 437.505
ANTELSAT 31 Aug 22:38:45 22:41:52 19° 94° (E) 22:44:57 437.575/2403.000
UWE-3 31 Aug 22:49:45 22:50:30 10° 271° (W) 22:51:14 435.000/436.395/437.385
ZACube-1 31 Aug 22:52:00 22:54:23 14° 268° (W) 22:56:46 437.345
HUMSAT D 31 Aug 22:55:37 22:59:40 55° 260° (W) 23:03:43 437.325/437.525
PRISM 31 Aug 23:01:11 23:04:32 24° 293° (WNW) 23:07:53 437.425
AISAT 31 Aug 23:05:01 23:08:00 18° 64° (ENE) 23:10:59 437.250
TIGRISAT 31 Aug 23:07:40 23:11:40 38° 98° (E) 23:15:37 435.000
ESTCUBE 1 31 Aug 23:14:42 23:18:49 37° 70° (ENE) 23:22:58 437.505/2401.250
RS-15 31 Aug 23:15:03 23:21:54 18° 96° (E) 23:28:54 29.354- 29.394
Cosmos 2499 31 Aug 23:16:10 23:23:08 59° 79° (ENE) 23:30:14 435.465 / 435.565
GONETS M04 31 Aug 23:25:28 23:34:24 85° 83° (E) 23:43:15
PHONESAT 2.4 31 Aug 23:26:42 23:27:44 11° 148° (SSE) 23:28:44 2401.200-2431.200
DELFI C3 31 Aug 23:27:17 23:28:41 12° 270° (W) 23:30:05 145.870
SPROUT 31 Aug 23:37:19 23:40:13 18° 65° (ENE) 23:43:08 437.525
UNISAT 6 31 Aug 23:37:41 23:41:58 89° 283° (WNW) 23:46:13 437.425
CUBEBUG 1 31 Aug 23:40:08 23:44:20 45° 72° (ENE) 23:48:35 437.445
CUSAT 1 31 Aug 23:40:32 23:43:40 73° 281° (WNW) 23:47:44 437.405
DANDE 31 Aug 23:40:56 23:42:55 19° 90° (E) 23:45:05 436.750
O/OREOS (USA 219) 31 Aug 23:41:53 23:46:29 70° 250° (WSW) 23:51:03 437.305
DUCHIFAT 1 31 Aug 23:47:56 23:50:01 13° 91° (E) 23:52:07 145.980
VELOX 1 31 Aug 23:50:18 23:54:34 48° 72° (ENE) 23:58:53 145.980
DX 1 31 Aug 23:52:01 23:55:57 34° 70° (ENE) 23:59:56 434.975-435.025
AUBIESAT-1 31 Aug 23:52:28 23:56:57 48° 256° (WSW) 00:01:25 437.475
QB50P2 31 Aug 23:56:32 23:59:45 21° 94° (E) 00:02:56 145.880/145.840
POLYITAN 1 31 Aug 23:59:01 00:02:14 21° 94° (E) 00:05:26 437.675
SO-50 31 Aug 23:59:42 00:04:15 39° 310° (NW) 00:08:47 436.795
M-CUBED/EXP-1 PRIME 01 Sep 00:02:39 00:06:51 32° 259° (WSW) 00:11:03 437.505
NANOSAT C BR1 01 Sep 00:03:07 00:06:24 22° 94° (E) 00:09:39 145.865
ANTELSAT 01 Sep 00:14:48 00:18:41 34° 289° (WNW) 00:22:32 437.575/2403.000
UKube-1 01 Sep 00:23:06 00:27:20 58° 73° (ENE) 00:31:36 .
BUGSAT 1 01 Sep 00:23:39 00:25:49 14° 91° (E) 00:27:56 437.445
50 SAT 01 Sep 00:29:20 00:32:50 54° 259° (W) 00:36:22 437.505
AISAT 01 Sep 00:39:49 00:44:06 46° 261° (W) 00:48:25 437.250
TIGRISAT 01 Sep 00:45:07 00:48:04 18° 294° (WNW) 00:51:00 435.000
QB50P1 01 Sep 00:49:18 00:53:32 80° 101° (E) 00:57:43 145.935-145.965
ESTCUBE 1 01 Sep 00:52:25 00:55:44 20° 267° (W) 00:59:05 437.505/2401.250
POPSAT HIP 1 01 Sep 00:59:48 01:04:02 80° 284° (WNW) 01:08:13 437.405
PHONESAT 2.4 01 Sep 01:00:42 01:03:34 42° 163° (SSE) 01:06:27 2401.200-2431.200
JAS-2 01 Sep 01:02:05 01:09:04 57° 101° (E) 01:16:38 435.910
Cosmos 2499 01 Sep 01:10:24 01:15:40 23° 277° (W) 01:21:01 435.465 / 435.565
SPROUT 01 Sep 01:11:45 01:15:51 42° 262° (W) 01:19:57 437.525
TISAT 1 01 Sep 01:13:29 01:17:30 42° 72° (ENE) 01:21:31 437.305
CUBEBUG 1 01 Sep 01:18:03 01:20:50 16° 268° (W) 01:23:40 437.445
RS-15 01 Sep 01:20:39 01:32:08 78° 118° (ESE) 01:44:16 29.354- 29.394
DUCHIFAT 1 01 Sep 01:21:57 01:26:00 49° 287° (WNW) 01:30:01 145.980
GONETS M04 01 Sep 01:24:16 01:30:00 20° 282° (WNW) 01:35:44
DANDE 01 Sep 01:25:18 01:25:48 10° 295° (WNW) 01:26:18 436.750
SWISSCUBE 01 Sep 01:26:24 01:29:02 15° 62° (ENE) 01:31:40 437.505
VELOX 1 01 Sep 01:28:36 01:31:17 16° 268° (W) 01:34:00 145.980
DX 1 01 Sep 01:28:51 01:32:12 21° 266° (W) 01:35:35 434.975-435.025
QB50P2 01 Sep 01:31:50 01:35:36 32° 290° (WNW) 01:39:19 145.880/145.840
POLYITAN 1 01 Sep 01:34:20 01:38:05 31° 290° (WNW) 01:41:47 437.675
NANOSAT C BR1 01 Sep 01:38:27 01:42:08 30° 291° (WNW) 01:45:49 145.865
BEESAT 01 Sep 01:42:10 01:45:29 19° 64° (ENE) 01:48:48 436.000
BUGSAT 1 01 Sep 01:57:30 02:01:27 45° 288° (WNW) 02:05:19 437.445
UKube-1 01 Sep 02:01:54 02:03:44 12° 269° (W) 02:05:34 .
ITUPSAT 1 01 Sep 02:31:14 02:35:52 56° 72° (ENE) 02:40:32 437.325
PHONESAT 2.4 01 Sep 02:36:47 02:39:47 79° 180° (S) 02:42:48 2401.200-2431.200
Oscar 19 01 Sep 02:37:14 02:42:27 71° 102° (ESE) 02:47:37 437.125/150
Gurwin Techsat 1B 01 Sep 02:46:47 02:51:46 40° 98° (E) 02:56:44 435.225
JAS-2 01 Sep 02:47:49 02:53:44 31° 296° (WNW) 03:00:05 435.910
TISAT 1 01 Sep 02:50:38 02:53:20 16° 267° (W) 02:56:02 437.305
MOZHAYETS 4 01 Sep 02:51:28 02:53:43 14° 62° (ENE) 02:55:57
SWISSCUBE 01 Sep 03:01:35 03:06:17 64° 258° (WSW) 03:11:01 437.505
Cosmos 2491 01 Sep 03:10:41 03:11:30 10° 53° (NE) 03:12:19 435.465 / 435.565
BEESAT 01 Sep 03:18:19 03:22:54 47° 260° (W) 03:27:30 436.000
RS-15 01 Sep 03:35:08 03:45:53 39° 324° (NW) 03:57:07 29.354- 29.394
KKS-1 01 Sep 03:45:07 03:49:14 37° 70° (ENE) 03:53:22 437.445
AO-85 01 Sep 03:58:26 04:02:52 27° 113° (ESE) 04:07:08 145.980
ITAMSAT 1 01 Sep 04:01:58 04:07:06 59° 101° (ESE) 04:12:12 435.822/435.867
STARS 01 Sep 04:07:50 04:11:45 31° 69° (ENE) 04:15:41 437.465
ITUPSAT 1 01 Sep 04:11:18 04:14:03 15° 268° (W) 04:16:48 437.325
PHONESAT 2.4 01 Sep 04:13:08 04:16:01 45° 196° (SSW) 04:18:54 2401.200-2431.200
Oscar 19 01 Sep 04:18:08 04:21:09 16° 299° (WNW) 04:24:10 437.125/150
CUBESAT XI-V 01 Sep 04:23:54 04:26:47 17° 64° (ENE) 04:29:40 437.345
YUBILEINY 01 Sep 04:25:42 04:27:13 11° 72° (ENE) 04:28:44 435.215
MOZHAYETS 4 01 Sep 04:25:49 04:30:20 64° 259° (W) 04:34:52
Gurwin Techsat 1B 01 Sep 04:27:08 04:31:31 27° 295° (WNW) 04:35:53 435.225
AO-7 01 Sep 04:41:17 04:49:27 57° 103° (ESE) 04:57:32 29.400- 29.500
Cosmos 2491 01 Sep 05:02:03 05:10:43 55° 77° (ENE) 05:19:19 435.465 / 435.565
KKS-1 01 Sep 05:22:32 05:25:54 21° 266° (W) 05:29:17 437.445
AO-85 01 Sep 05:38:11 05:43:12 43° 308° (NW) 05:47:57 145.980
BRITE-PL 01 Sep 05:40:43 05:44:20 17° 89° (E) 05:47:51 437.365/2234.400
ITAMSAT 1 01 Sep 05:42:38 05:46:06 18° 298° (WNW) 05:49:32 435.822/435.867
STARS 01 Sep 05:44:31 05:48:07 24° 265° (W) 05:51:43 437.465
PHONESAT 2.4 01 Sep 05:50:33 05:51:53 12° 211° (SSW) 05:53:13 2401.200-2431.200
RS-15 01 Sep 05:54:16 06:03:17 23° 358° (N) 06:12:28 29.354- 29.394
CUBESAT XI-V 01 Sep 05:59:13 06:03:43 53° 260° (W) 06:08:16 437.345
STRAND 1 01 Sep 06:06:30 06:08:29 12° 59° (ENE) 06:10:29 437.568
YUBILEINY 01 Sep 06:13:26 06:22:07 64° 92° (E) 06:30:47 435.215
GOMX 1 01 Sep 06:29:17 06:33:12 21° 91° (E) 06:36:56 467.674
HORYU 2 01 Sep 06:34:12 06:38:37 74° 285° (WNW) 06:43:00 437.375
AO-7 01 Sep 06:34:37 06:41:50 35° 302° (WNW) 06:49:01 29.400- 29.500
ISS 01 Sep 06:35:06 06:37:18 17° 132° (SE) 06:39:30 145.825
SO-50 01 Sep 06:50:59 06:54:52 26° 45° (NE) 06:58:39 436.795
Cosmos 2491 01 Sep 06:59:34 07:07:05 33° 276° (W) 07:14:36 435.465 / 435.565
NOAA 18 01 Sep 07:00:15 07:05:06 32° 97° (E) 07:09:54 137.9125
NOAA 15 01 Sep 07:02:40 07:07:50 49° 100° (E) 07:12:58 137.62
Cubesat XI-IV 01 Sep 07:07:39 07:12:42 42° 99° (E) 07:17:44 437.490
Cosmos 2504 01 Sep 07:10:01 07:18:02 54° 91° (E) 07:25:32 435.465 / 435.565
BRITE-PL 01 Sep 07:17:37 07:23:16 67° 286° (WNW) 07:28:42 437.365/2234.400
CUTE-I 01 Sep 07:17:47 07:22:59 53° 100° (E) 07:28:10 437.470
LilacSat-2 01 Sep 07:30:00 07:33:48 84° 105° (ESE) 07:37:33 437.200
STRAND 1 01 Sep 07:41:48 07:46:55 88° 255° (WSW) 07:52:03 437.568
DOVE 4 01 Sep 07:47:38 07:52:28 51° 98° (E) 07:56:58 437.250
CINEMA 3 01 Sep 07:53:13 07:55:33 14° 90° (E) 07:57:52 145.822/145.860
BEESAT 3 01 Sep 08:05:58 08:08:39 18° 111° (ESE) 08:11:22 437.485
GOMX 1 01 Sep 08:06:25 08:11:33 48° 289° (WNW) 08:16:23 467.674
RS-15 01 Sep 08:10:01 08:21:02 35° 33° (NNE) 08:31:58 29.354- 29.394
ISS 01 Sep 08:10:15 08:13:28 55° 328° (NNW) 08:16:43 145.825
YUBILEINY 01 Sep 08:12:08 08:19:30 29° 292° (WNW) 08:26:55 435.215
PRISM 01 Sep 08:15:28 08:18:35 21° 67° (ENE) 08:21:44 437.425
SEEDS 01 Sep 08:16:38 08:18:43 13° 91° (E) 08:20:46 437.485
CUSAT 1 01 Sep 08:30:36 08:34:28 15° 64° (ENE) 08:38:34 437.405
SO-50 01 Sep 08:31:11 08:35:28 40° 244° (WSW) 08:39:38 436.795
AAUSAT CUBESAT 2 01 Sep 08:34:02 08:35:01 11° 90° (E) 08:36:01 437.432
NOAA 18 01 Sep 08:40:50 08:45:44 35° 293° (WNW) 08:50:36 137.9125
NOAA 15 01 Sep 08:43:13 08:47:15 22° 297° (WNW) 08:51:16 137.62
COMPASS 1 01 Sep 08:45:25 08:48:29 19° 93° (E) 08:51:32 437.405
CANX-2 01 Sep 08:46:59 08:51:07 49° 99° (E) 08:55:14 2200.000
Cubesat XI-IV 01 Sep 08:48:15 08:52:31 25° 295° (WNW) 08:56:48 437.490
CUTE 1.7 + AOD 2 01 Sep 08:52:03 08:56:10 48° 99° (E) 09:00:18 437.475
CUTE-I 01 Sep 08:58:47 09:02:37 21° 297° (WNW) 09:06:28 437.470
BRITE-PL 01 Sep 09:00:05 09:00:36 10° 304° (NW) 09:01:08 437.365/2234.400
UWE-3 01 Sep 09:00:32 09:02:31 13° 91° (E) 09:04:30 435.000/436.395/437.385
HO-68 01 Sep 09:03:48 09:10:55 63° 103° (ESE) 09:17:59 435.675
Cosmos 2504 01 Sep 09:04:33 09:11:40 31° 289° (WNW) 09:18:24 435.465 / 435.565
AIST 1 01 Sep 09:09:30 09:13:49 66° 95° (E) 09:18:12
CUBEBUG 2 01 Sep 09:12:27 09:16:03 27° 96° (E) 09:19:37 437.445
DOVE 4 01 Sep 09:26:22 09:29:40 18° 297° (WNW) 09:32:50 437.250
CINEMA 3 01 Sep 09:28:46 09:33:03 49° 287° (WNW) 09:37:09 145.822/145.860
BEESAT 2 01 Sep 09:34:20 09:38:17 89° 115° (ESE) 09:42:17 435.950
ANTELSAT 01 Sep 09:37:40 09:40:53 20° 66° (ENE) 09:44:05 437.575/2403.000
BEESAT 3 01 Sep 09:42:22 09:46:02 38° 308° (NW) 09:49:45 437.485
ISS 01 Sep 09:48:17 09:50:30 17° 347° (NNW) 09:52:42 145.825
PRISM 01 Sep 09:50:04 09:53:43 31° 263° (W) 09:57:25 437.425
SEEDS 01 Sep 09:50:36 09:54:42 51° 286° (WNW) 09:58:47 437.485
Oscar 11 01 Sep 09:58:59 10:03:04 39° 98° (E) 10:07:07 145.826/435.025
TIGRISAT 01 Sep 10:06:01 10:10:10 35° 70° (ENE) 10:14:14 435.000
AAUSAT CUBESAT 2 01 Sep 10:06:45 10:10:53 62° 285° (WNW) 10:15:00 437.432
CUSAT 1 01 Sep 10:10:17 10:17:16 76° 80° (E) 10:25:14 437.405
FUNcube-1 01 Sep 10:13:28 10:17:32 53° 100° (E) 10:21:34 145.935
DANDE 01 Sep 10:13:54 10:19:21 35° 75° (ENE) 10:26:03 436.750
COMPASS 1 01 Sep 10:20:18 10:24:07 34° 289° (WNW) 10:27:54 437.405
RS-15 01 Sep 10:22:50 10:35:18 89° 239° (WSW) 10:47:29 29.354- 29.394
CANX-2 01 Sep 10:24:07 10:26:34 15° 295° (WNW) 10:29:01 2200.000
CUTE 1.7 + AOD 2 01 Sep 10:29:08 10:31:37 15° 295° (WNW) 10:34:06 437.475
GONETS M04 01 Sep 10:33:17 10:39:00 20° 78° (ENE) 10:44:45
UWE-3 01 Sep 10:35:16 10:39:17 48° 287° (WNW) 10:43:16 435.000/436.395/437.385
UNISAT 6 01 Sep 10:35:55 10:40:29 80° 76° (ENE) 10:44:58 437.425
ZACube-1 01 Sep 10:37:54 10:42:02 73° 285° (WNW) 10:46:09 437.345
HUMSAT D 01 Sep 10:39:24 10:42:36 21° 94° (E) 10:45:47 437.325/437.525
DUCHIFAT 1 01 Sep 10:41:01 10:42:18 11° 62° (ENE) 10:43:35 145.980
CUBEBUG 2 01 Sep 10:49:14 10:52:34 23° 292° (WNW) 10:55:53 437.445
QB50P2 01 Sep 10:49:38 10:52:25 17° 65° (ENE) 10:55:12 145.880/145.840
AIST 1 01 Sep 10:50:35 10:51:54 11° 293° (WNW) 10:53:15
POLYITAN 1 01 Sep 10:52:06 10:54:55 17° 65° (ENE) 10:57:43 437.675
HO-68 01 Sep 10:52:23 10:58:06 27° 301° (WNW) 11:03:49 435.675
AIST 2 01 Sep 10:52:45 10:55:59 23° 112° (ESE) 10:59:15 435.215
NANOSAT C BR1 01 Sep 10:55:43 10:58:32 18° 65° (ENE) 11:01:22 145.865
PCSat 01 Sep 11:01:08 11:06:21 52° 114° (ESE) 11:11:37 145.827
DELFI C3 01 Sep 11:01:41 11:05:43 87° 102° (ESE) 11:09:44 145.870
ANTELSAT 01 Sep 11:13:01 11:17:20 41° 262° (W) 11:21:34 437.575/2403.000
BUGSAT 1 01 Sep 11:14:30 11:15:51 11° 62° (ENE) 11:17:11 437.445
BEESAT 2 01 Sep 11:15:08 11:16:42 12° 321° (NW) 11:18:17 435.950
JAS-2 01 Sep 11:16:58 11:20:49 20° 60° (ENE) 11:24:53 435.910
ISS 01 Sep 11:26:03 11:27:57 14° 7° (N) 11:29:52 145.825
